{"data":{"norad_id":60340,"epoch":"2026-05-25T02:26:20.736960Z","epoch_age_seconds":69689,"freshness":"FRESH","line1":"1 60340U 24136M   26145.10162890  .00003571  00000+0  13263-3 0  9997","line2":"2 60340  53.1601  80.7339 0001014  88.4199 271.6918 15.30198237102530","mean_motion":15.30198237,"eccentricity":0.0001014,"inclination_deg":53.1601,"raan_deg":80.7339,"arg_perigee_deg":88.4199,"mean_anomaly_deg":271.6918,"bstar":0.00013263,"rev_number":10253,"period_min":94.105454128817,"perigee_km":474.52540299099,"apogee_km":475.9152638582,"semimajor_km":6853.3573334246,"source":"CELESTRAK","updated_at":"2026-05-25T13:38:19.234811Z"}}